| time (UTC) | temp F | wind direction | speed MPH | gust MPH | rain 1hr in | rain 24hr in | rain mn in | humidity % | barometer mb |
| 20260906111825 | 72 | 133 | 0.0 | 0.0 | 0.00 | 0.19 | 0.00 | 78 | 1016.6 |
| 20260906111326 | 73 | 133 | 0.0 | 0.0 | 0.00 | 0.19 | 0.00 | 78 | 1016.6 |
| 20260906110834 | 73 | 134 | 0.0 | 0.0 | 0.00 | 0.19 | 0.19 | 79 | 1016.5 |
| 20260906110318 | 73 | 132 | 0.0 | 0.0 | 0.00 | 0.19 | 0.19 | 79 | 1016.6 |
| 20260906105820 | 73 | 133 | 0.0 | 0.0 | 0.00 | 0.19 | 0.19 | 79 | 1016.6 |
| 20260906105349 | 73 | 133 | 0.0 | 0.0 | 0.00 | 0.19 | 0.19 | 79 | 1016.6 |
| 20260906104810 | 73 | 133 | 0.0 | 0.0 | 0.00 | 0.19 | 0.19 | 79 | 1016.6 |
| 20260906104319 | 72 | 132 | 0.0 | 0.0 | 0.00 | 0.19 | 0.19 | 78 | 1016.6 |
| 20260906103840 | 72 | 134 | 0.0 | 0.0 | 0.00 | 0.19 | 0.19 | 78 | 1016.5 |
| 20260906103329 | 72 | 134 | 0.0 | 0.0 | 0.00 | 0.19 | 0.19 | 79 | 1016.5 |
| 20260906102812 | 72 | 135 | 0.0 | 0.0 | 0.00 | 0.19 | 0.19 | 79 | 1016.6 |
| 20260906102314 | 72 | 133 | 0.0 | 0.0 | 0.00 | 0.19 | 0.19 | 79 | 1016.7 |
| 20260906101843 | 73 | 134 | 0.0 | 0.0 | 0.00 | 0.19 | 0.19 | 79 | 1016.6 |
| 20260906101325 | 73 | 136 | 0.0 | 0.0 | 0.00 | 0.19 | 0.19 | 79 | 1016.6 |
| 20260906100853 | 73 | 136 | 0.0 | 0.0 | 0.00 | 0.19 | 0.19 | 79 | 1016.5 |
| 20260906100316 | 73 | 137 | 0.0 | 0.0 | 0.00 | 0.19 | 0.19 | 79 | 1016.5 |
| 20260906095819 | 73 | 137 | 0.0 | 0.0 | 0.00 | 0.19 | 0.19 | 78 | 1016.6 |
| 20260906095346 | 74 | 137 | 0.0 | 0.0 | 0.00 | 0.19 | 0.19 | 78 | 1016.6 |
| 20260906094831 | 74 | 137 | 0.0 | 0.0 | 0.00 | 0.19 | 0.19 | 77 | 1016.6 |
| 20260906094310 | 74 | 137 | 0.0 | 0.0 | 0.00 | 0.19 | 0.19 | 77 | 1016.6 |
| 20260906093811 | 73 | 141 | 0.0 | 0.0 | 0.00 | 0.19 | 0.19 | 78 | 1016.7 |
| 20260906093313 | 73 | 138 | 0.0 | 0.0 | 0.00 | 0.19 | 0.19 | 79 | 1016.6 |
| 20260906092821 | 73 | 137 | 0.0 | 0.0 | 0.00 | 0.19 | 0.19 | 79 | 1016.6 |
| 20260906092326 | 73 | 138 | 0.0 | 0.0 | 0.00 | 0.19 | 0.19 | 79 | 1016.6 |
| 20260906091827 | 74 | 139 | 0.0 | 0.0 | 0.00 | 0.19 | 0.19 | 79 | 1016.8 |
| 20260906091310 | 74 | 139 | 0.0 | 0.0 | 0.00 | 0.19 | 0.19 | 78 | 1016.7 |
| 20260906090819 | 74 | 139 | 0.0 | 0.0 | 0.00 | 0.19 | 0.19 | 77 | 1016.7 |
| 20260906090323 | 74 | 139 | 0.0 | 0.0 | 0.00 | 0.19 | 0.19 | 77 | 1016.7 |
| 20260906085831 | 74 | 139 | 0.0 | 0.0 | 0.00 | 0.19 | 0.19 | 77 | 1016.6 |
| 20260906085313 | 74 | 139 | 0.0 | 0.0 | 0.00 | 0.19 | 0.19 | 77 | 1016.6 |
| 20260906084817 | 74 | 139 | 0.0 | 0.0 | 0.00 | 0.19 | 0.19 | 76 | 1016.5 |
| 20260906084320 | 74 | 139 | 0.0 | 0.0 | 0.00 | 0.19 | 0.19 | 76 | 1016.5 |
| 20260906083829 | 74 | 139 | 0.0 | 0.0 | 0.00 | 0.19 | 0.19 | 76 | 1016.4 |
| 20260906083311 | 74 | 139 | 0.0 | 0.0 | 0.00 | 0.19 | 0.19 | 76 | 1016.4 |
| 20260906082837 | 74 | 139 | 0.0 | 0.0 | 0.00 | 0.19 | 0.19 | 76 | 1016.5 |
| 20260906082345 | 74 | 139 | 0.0 | 0.0 | 0.00 | 0.19 | 0.19 | 76 | 1016.5 |
| 20260906081827 | 74 | 139 | 0.0 | 0.0 | 0.00 | 0.19 | 0.19 | 76 | 1016.5 |
| 20260906081311 | 74 | 139 | 0.0 | 0.0 | 0.00 | 0.19 | 0.19 | 76 | 1016.5 |
| 20260906080821 | 74 | 139 | 0.0 | 0.0 | 0.00 | 0.19 | 0.19 | 76 | 1016.4 |
| 20260906080326 | 74 | 139 | 0.0 | 0.0 | 0.00 | 0.19 | 0.19 | 75 | 1016.4 |
| 20260906075811 | 74 | 139 | 0.0 | 0.0 | 0.00 | 0.19 | 0.19 | 75 | 1016.4 |
| 20260906075320 | 74 | 139 | 0.0 | 0.0 | 0.00 | 0.19 | 0.19 | 76 | 1016.4 |
| 20260906074824 | 74 | 139 | 0.0 | 0.0 | 0.00 | 0.19 | 0.19 | 76 | 1016.4 |
| 20260906074308 | 74 | 139 | 0.0 | 0.0 | 0.00 | 0.19 | 0.19 | 76 | 1016.4 |
| 20260906073809 | 74 | 139 | 0.0 | 0.0 | 0.00 | 0.19 | 0.19 | 76 | 1016.4 |
| 20260906073321 | 74 | 139 | 0.0 | 0.0 | 0.00 | 0.19 | 0.19 | 77 | 1016.3 |
| 20260906072823 | 74 | 139 | 0.0 | 0.0 | 0.00 | 0.19 | 0.19 | 77 | 1016.3 |
| 20260906072326 | 74 | 139 | 0.0 | 0.0 | 0.00 | 0.19 | 0.19 | 78 | 1016.4 |
| 20260906071808 | 74 | 139 | 0.0 | 0.0 | 0.00 | 0.19 | 0.19 | 77 | 1016.5 |
| 20260906071317 | 74 | 139 | 0.0 | 0.0 | 0.00 | 0.19 | 0.19 | 77 | 1016.5 |
| 20260906070821 | 75 | 139 | 0.0 | 0.0 | 0.00 | 0.19 | 0.19 | 76 | 1016.6 |
| 20260906070332 | 75 | 139 | 0.0 | 0.0 | 0.00 | 0.19 | 0.19 | 76 | 1016.6 |
| 20260906065819 | 75 | 139 | 0.0 | 0.0 | 0.00 | 0.19 | 0.19 | 76 | 1016.6 |
| 20260906065328 | 75 | 139 | 0.0 | 0.0 | 0.00 | 0.19 | 0.19 | 76 | 1016.6 |
| 20260906064810 | 75 | 139 | 0.0 | 0.0 | 0.00 | 0.19 | 0.19 | 76 | 1016.6 |
| 20260906064315 | 75 | 139 | 0.0 | 0.0 | 0.00 | 0.19 | 0.19 | 76 | 1016.4 |
| 20260906063818 | 75 | 139 | 0.0 | 0.0 | 0.00 | 0.19 | 0.19 | 75 | 1016.5 |
| 20260906063326 | 75 | 139 | 0.0 | 0.0 | 0.00 | 0.19 | 0.19 | 75 | 1016.5 |
| 20260906062826 | 75 | 139 | 0.0 | 0.0 | 0.00 | 0.19 | 0.19 | 76 | 1016.5 |
| 20260906062336 | 74 | 139 | 0.0 | 0.0 | 0.00 | 0.19 | 0.19 | 76 | 1016.5 |
| 20260906061823 | 74 | 138 | 0.0 | 0.0 | 0.00 | 0.19 | 0.19 | 76 | 1016.6 |
| 20260906061326 | 74 | 139 | 0.0 | 0.0 | 0.00 | 0.19 | 0.19 | 75 | 1016.7 |
| 20260906060809 | 74 | 138 | 0.0 | 0.0 | 0.00 | 0.19 | 0.19 | 76 | 1016.9 |
| 20260906060311 | 74 | 139 | 0.0 | 0.0 | 0.00 | 0.19 | 0.19 | 76 | 1017.0 |
| 20260906055840 | 74 | 139 | 0.0 | 0.0 | 0.00 | 0.19 | 0.19 | 76 | 1017.0 |
| 20260906055308 | 75 | 139 | 0.0 | 0.0 | 0.00 | 0.19 | 0.19 | 76 | 1017.1 |
| 20260906054819 | 75 | 139 | 0.0 | 0.0 | 0.00 | 0.19 | 0.19 | 76 | 1017.1 |
| 20260906054320 | 74 | 138 | 0.0 | 0.0 | 0.00 | 0.19 | 0.19 | 76 | 1017.1 |
| 20260906053849 | 74 | 139 | 0.0 | 0.0 | 0.00 | 0.19 | 0.19 | 76 | 1017.2 |
| 20260906053349 | 75 | 138 | 0.0 | 0.0 | 0.00 | 0.19 | 0.19 | 77 | 1017.3 |
| 20260906052809 | 75 | 139 | 0.0 | 0.0 | 0.00 | 0.19 | 0.19 | 76 | 1017.4 |
| 20260906052319 | 75 | 139 | 0.0 | 0.0 | 0.00 | 0.19 | 0.19 | 76 | 1017.5 |
| 20260906051820 | 75 | 139 | 0.0 | 0.0 | 0.00 | 0.19 | 0.19 | 76 | 1017.4 |
| 20260906051330 | 74 | 138 | 0.0 | 0.0 | 0.00 | 0.19 | 0.19 | 75 | 1017.4 |
| 20260906050811 | 74 | 139 | 0.0 | 0.0 | 0.00 | 0.19 | 0.19 | 76 | 1017.4 |
| 20260906050315 | 74 | 138 | 0.0 | 0.0 | 0.00 | 0.19 | 0.19 | 76 | 1017.4 |
| 20260906045824 | 74 | 138 | 0.0 | 0.0 | 0.00 | 0.19 | 0.19 | 76 | 1017.4 |
| 20260906045347 | 73 | 138 | 0.0 | 0.0 | 0.00 | 0.19 | 0.19 | 76 | 1017.4 |
| 20260906044834 | 73 | 138 | 0.0 | 0.0 | 0.00 | 0.19 | 0.19 | 77 | 1017.5 |
| 20260906044317 | 73 | 138 | 0.0 | 0.0 | 0.00 | 0.19 | 0.19 | 78 | 1017.7 |
| 20260906043820 | 73 | 139 | 0.0 | 0.0 | 0.00 | 0.19 | 0.19 | 78 | 1017.7 |
| 20260906043323 | 73 | 138 | 0.0 | 0.0 | 0.00 | 0.19 | 0.19 | 78 | 1017.6 |
| 20260906042833 | 73 | 138 | 0.0 | 0.0 | 0.00 | 0.19 | 0.19 | 78 | 1017.8 |
| 20260906042316 | 73 | 139 | 0.0 | 0.0 | 0.00 | 0.19 | 0.19 | 78 | 1017.9 |
| 20260906041827 | 72 | 138 | 0.0 | 0.0 | 0.00 | 0.19 | 0.19 | 78 | 1017.8 |
| 20260906041309 | 72 | 138 | 0.0 | 0.0 | 0.00 | 0.19 | 0.19 | 76 | 1017.8 |
| 20260906040811 | 71 | 138 | 0.0 | 0.0 | 0.00 | 0.19 | 0.19 | 73 | 1017.8 |
| 20260906040312 | 72 | 137 | 0.0 | 0.0 | 0.00 | 0.19 | 0.19 | 69 | 1017.7 |
| 20260906035820 | 73 | 137 | 0.0 | 0.0 | 0.00 | 0.19 | 0.19 | 73 | 1017.7 |
| 20260906035323 | 73 | 143 | 0.0 | 0.0 | 0.00 | 0.19 | 0.19 | 77 | 1017.7 |
| 20260906034853 | 74 | 140 | 0.0 | 0.0 | 0.00 | 0.19 | 0.19 | 78 | 1017.8 |
| 20260906034335 | 74 | 139 | 0.0 | 0.0 | 0.00 | 0.19 | 0.19 | 78 | 1017.7 |
| 20260906033816 | 75 | 138 | 0.0 | 0.0 | 0.00 | 0.19 | 0.19 | 78 | 1017.6 |
| 20260906033345 | 75 | 138 | 0.0 | 0.0 | 0.00 | 0.19 | 0.19 | 78 | 1017.5 |
| 20260906032833 | 75 | 137 | 0.0 | 0.0 | 0.00 | 0.19 | 0.19 | 77 | 1017.5 |
| 20260906032315 | 75 | 137 | 0.0 | 0.0 | 0.00 | 0.19 | 0.19 | 77 | 1017.5 |
| 20260906031814 | 75 | 137 | 0.0 | 0.0 | 0.00 | 0.19 | 0.19 | 78 | 1017.5 |
| 20260906031324 | 73 | 137 | 0.0 | 0.0 | 0.00 | 0.19 | 0.19 | 78 | 1017.6 |
| 20260906030824 | 72 | 137 | 0.0 | 0.0 | 0.00 | 0.19 | 0.19 | 71 | 1017.6 |
| 20260906030333 | 72 | 136 | 0.0 | 0.0 | 0.00 | 0.19 | 0.19 | 67 | 1017.7 |
| 20260906025815 | 73 | 136 | 0.0 | 0.0 | 0.00 | 0.19 | 0.19 | 70 | 1017.8 |
| 20260906025318 | 73 | 139 | 0.0 | 0.0 | 0.00 | 0.19 | 0.19 | 74 | 1018.0 |
| 20260906024819 | 74 | 143 | 0.0 | 0.0 | 0.00 | 0.19 | 0.19 | 78 | 1018.0 |
| 20260906024349 | 75 | 139 | 0.0 | 0.0 | 0.00 | 0.19 | 0.19 | 79 | 1017.9 |
| 20260906023838 | 75 | 139 | 0.0 | 0.0 | 0.00 | 0.19 | 0.19 | 79 | 1017.9 |
| 20260906023320 | 75 | 140 | 0.0 | 0.0 | 0.00 | 0.19 | 0.19 | 77 | 1018.0 |
| 20260906022821 | 76 | 140 | 0.0 | 0.0 | 0.00 | 0.19 | 0.19 | 75 | 1017.9 |
| 20260906022330 | 76 | 136 | 0.0 | 0.0 | 0.00 | 0.19 | 0.19 | 73 | 1017.9 |
| 20260906021839 | 77 | 136 | 0.0 | 0.0 | 0.00 | 0.19 | 0.19 | 74 | 1017.8 |
| 20260906021321 | 77 | 136 | 0.0 | 0.0 | 0.00 | 0.19 | 0.19 | 74 | 1017.8 |
| 20260906020833 | 77 | 135 | 0.0 | 0.0 | 0.00 | 0.19 | 0.19 | 74 | 1018.0 |
| 20260906020322 | 77 | 135 | 0.0 | 0.0 | 0.00 | 0.19 | 0.19 | 74 | 1017.9 |
| 20260906015826 | 76 | 135 | 0.0 | 0.0 | 0.00 | 0.19 | 0.19 | 74 | 1017.9 |
| 20260906015309 | 77 | 134 | 0.0 | 0.0 | 0.00 | 0.19 | 0.19 | 74 | 1017.6 |
| 20260906014817 | 76 | 134 | 0.0 | 0.0 | 0.00 | 0.19 | 0.19 | 75 | 1017.6 |
| 20260906014322 | 76 | 134 | 0.0 | 0.0 | 0.00 | 0.19 | 0.19 | 75 | 1017.5 |
| 20260906013831 | 76 | 135 | 0.0 | 0.0 | 0.00 | 0.19 | 0.19 | 75 | 1017.5 |
| 20260906013317 | 76 | 134 | 0.0 | 0.0 | 0.00 | 0.19 | 0.19 | 75 | 1017.5 |
| 20260906012823 | 76 | 135 | 0.0 | 0.0 | 0.00 | 0.19 | 0.19 | 75 | 1017.3 |
| 20260906012328 | 76 | 135 | 0.0 | 0.0 | 0.00 | 0.19 | 0.19 | 74 | 1017.1 |
| 20260906011814 | 76 | 136 | 0.0 | 0.0 | 0.00 | 0.19 | 0.19 | 75 | 1017.0 |
| 20260906011316 | 76 | 136 | 0.0 | 0.0 | 0.00 | 0.19 | 0.19 | 75 | 1016.8 |
| 20260906010819 | 76 | 136 | 0.0 | 0.0 | 0.00 | 0.19 | 0.19 | 76 | 1016.7 |
| 20260906010328 | 76 | 135 | 0.0 | 0.0 | 0.00 | 0.19 | 0.19 | 77 | 1016.6 |
| 20260906005828 | 76 | 136 | 0.0 | 0.0 | 0.00 | 0.19 | 0.19 | 77 | 1016.4 |
| 20260906005310 | 75 | 136 | 0.0 | 0.0 | 0.00 | 0.19 | 0.19 | 78 | 1016.5 |
| 20260906004845 | 75 | 135 | 0.0 | 0.0 | 0.00 | 0.19 | 0.19 | 78 | 1016.5 |
| 20260906004326 | 75 | 134 | 0.0 | 0.0 | 0.00 | 0.19 | 0.19 | 78 | 1016.3 |
| 20260906003816 | 75 | 134 | 0.0 | 0.0 | 0.00 | 0.19 | 0.19 | 78 | 1016.2 |
| 20260906003324 | 75 | 134 | 0.0 | 0.0 | 0.00 | 0.19 | 0.19 | 78 | 1016.0 |
| 20260906002826 | 75 | 134 | 0.0 | 0.0 | 0.00 | 0.19 | 0.19 | 78 | 1016.0 |
| 20260906002335 | 75 | 134 | 0.0 | 0.0 | 0.00 | 0.19 | 0.19 | 78 | 1016.1 |
| 20260906001844 | 75 | 135 | 0.0 | 0.0 | 0.00 | 0.19 | 0.19 | 78 | 1016.0 |
| 20260906001326 | 75 | 134 | 0.0 | 0.0 | 0.00 | 0.19 | 0.19 | 78 | 1015.9 |
| 20260906000810 | 76 | 132 | 0.0 | 5.0 | 0.00 | 0.19 | 0.19 | 77 | 1015.8 |
| 20260906000340 | 75 | 131 | 4.0 | 5.0 | 0.00 | 0.19 | 0.19 | 77 | 1015.9 |
| 20260905235819 | 75 | 134 | 2.0 | 4.0 | 0.00 | 0.19 | 0.19 | 68 | 1016.0 |
| 20260905235331 | 75 | 136 | 1.0 | 2.0 | 0.00 | 0.19 | 0.19 | 66 | 1016.0 |
| 20260905234813 | 75 | 139 | 0.0 | 0.0 | 0.00 | 0.19 | 0.19 | 62 | 1016.2 |
| 20260905234321 | 75 | 140 | 0.0 | 0.0 | 0.00 | 0.19 | 0.19 | 64 | 1016.3 |
| 20260905233831 | 75 | 139 | 0.0 | 0.0 | 0.00 | 0.19 | 0.19 | 59 | 1016.3 |
| 20260905233341 | 75 | 139 | 0.0 | 0.0 | 0.00 | 0.19 | 0.19 | 57 | 1016.3 |
| 20260905232821 | 75 | 139 | 0.0 | 0.0 | 0.00 | 0.19 | 0.19 | 58 | 1016.5 |
| 20260905232331 | 76 | 139 | 0.0 | 0.0 | 0.00 | 0.19 | 0.19 | 65 | 1016.6 |
| 20260905231833 | 75 | 139 | 0.0 | 0.0 | 0.00 | 0.19 | 0.19 | 63 | 1016.7 |
| 20260905231315 | 75 | 140 | 0.0 | 0.0 | 0.00 | 0.19 | 0.19 | 48 | 1016.8 |
| 20260905230826 | 75 | 139 | 0.0 | 0.0 | 0.00 | 0.19 | 0.19 | 48 | 1016.8 |
| 20260905230310 | 76 | 139 | 0.0 | 0.0 | 0.00 | 0.19 | 0.19 | 58 | 1016.6 |
| 20260905225820 | 76 | 139 | 0.0 | 0.0 | 0.00 | 0.19 | 0.19 | 58 | 1016.6 |
| 20260905225322 | 75 | 139 | 0.0 | 0.0 | 0.00 | 0.19 | 0.19 | 51 | 1016.6 |
| 20260905224816 | 75 | 137 | 0.0 | 2.0 | 0.00 | 0.19 | 0.19 | 58 | 1016.6 |
| 20260905224339 | 75 | 136 | 0.0 | 4.0 | 0.00 | 0.19 | 0.19 | 56 | 1016.6 |
| 20260905223817 | 74 | 133 | 3.0 | 4.0 | 0.00 | 0.19 | 0.19 | 55 | 1016.5 |
| 20260905223319 | 73 | 133 | 2.0 | 4.0 | 0.00 | 0.19 | 0.19 | 59 | 1016.5 |
| 20260905222855 | 73 | 132 | 3.0 | 4.0 | 0.00 | 0.19 | 0.19 | 62 | 1016.6 |
| 20260905222317 | 73 | 132 | 3.0 | 4.0 | 0.00 | 0.19 | 0.19 | 63 | 1016.7 |
| 20260905221819 | 73 | 134 | 1.0 | 2.0 | 0.00 | 0.19 | 0.19 | 59 | 1016.7 |
| 20260905221321 | 73 | 134 | 0.0 | 1.0 | 0.00 | 0.19 | 0.19 | 21 | 1016.7 |
| 20260905220829 | 73 | 134 | 0.0 | 1.0 | 0.00 | 0.19 | 0.19 | 25 | 1016.6 |
| 20260905220315 | 72 | 134 | 0.0 | 4.0 | 0.01 | 0.19 | 0.19 | 3 | 1016.3 |
| 20260905215812 | 72 | 133 | 1.0 | 4.0 | 0.02 | 0.19 | 0.19 | 1 | 1016.3 |
| 20260905215321 | 72 | 130 | 2.0 | 4.0 | 0.06 | 0.19 | 0.19 | 1 | 1016.2 |
| 20260905214827 | 73 | 129 | 3.0 | 5.0 | 0.13 | 0.19 | 0.19 | 1 | 1016.2 |
| 20260905214328 | 73 | 128 | 3.0 | 6.0 | 0.18 | 0.19 | 0.19 | 1 | 1016.1 |
| 20260905213810 | 73 | 126 | 4.0 | 6.0 | 0.19 | 0.19 | 0.19 | 1 | 1016.1 |
| 20260905213310 | 73 | 124 | 0.0 | 0.0 | 0.19 | 0.19 | 0.19 | 1 | 1016.1 |
| 20260905212818 | 73 | 127 | 0.0 | 0.0 | 0.19 | 0.19 | 0.19 | 1 | 1016.2 |
| 20260905212320 | 73 | 128 | 0.0 | 4.0 | 0.19 | 0.19 | 0.19 | 15 | 1016.4 |
| 20260905211821 | 74 | 126 | 0.0 | 4.0 | 0.19 | 0.19 | 0.19 | 4 | 1016.6 |
| 20260905211329 | 75 | 126 | 3.0 | 4.0 | 0.19 | 0.19 | 0.19 | 1 | 1016.8 |
| 20260905210809 | 75 | 132 | 0.0 | 2.0 | 0.19 | 0.19 | 0.19 | 1 | 1017.1 |
| 20260905210314 | 75 | 134 | 0.0 | 3.0 | 0.18 | 0.18 | 0.18 | 7 | 1017.2 |
| 20260905205849 | 75 | 132 | 1.0 | 5.0 | 0.17 | 0.17 | 0.17 | 7 | 1017.2 |
| 20260905205310 | 76 | 133 | 2.0 | 5.0 | 0.12 | 0.12 | 0.12 | 45 | 1017.3 |
| 20260905204826 | 77 | 132 | 2.0 | 5.0 | 0.06 | 0.06 | 0.06 | 78 | 1017.3 |
| 20260905204332 | 80 | 132 | 2.0 | 5.0 | 0.01 | 0.01 | 0.01 | 79 | 1017.1 |
| 20260905203824 | 83 | 143 | 0.0 | 0.0 | 0.00 | 0.00 | 0.00 | 75 | 1016.8 |
| 20260905203326 | 83 | 145 | 0.0 | 0.0 | 0.00 | 0.00 | 0.00 | 71 | 1016.8 |
| 20260905202809 | 84 | 145 | 0.0 | 0.0 | 0.00 | 0.00 | 0.00 | 70 | 1016.8 |
| 20260905202317 | 84 | 145 | 0.0 | 0.0 | 0.00 | 0.00 | 0.00 | 71 | 1017.0 |
| 20260905201818 | 83 | 145 | 0.0 | 0.0 | 0.00 | 0.00 | 0.00 | 72 | 1017.1 |
| 20260905201329 | 83 | 145 | 0.0 | 0.0 | 0.00 | 0.00 | 0.00 | 73 | 1017.1 |
| 20260905200813 | 82 | 145 | 0.0 | 0.0 | 0.00 | 0.00 | 0.00 | 75 | 1017.1 |
| 20260905200314 | 82 | 144 | 0.0 | 0.0 | 0.00 | 0.00 | 0.00 | 74 | 1017.1 |
| 20260905195816 | 83 | 144 | 0.0 | 0.0 | 0.00 | 0.00 | 0.00 | 73 | 1017.1 |
| 20260905195324 | 83 | 144 | 0.0 | 0.0 | 0.00 | 0.00 | 0.00 | 71 | 1017.1 |
| 20260905194811 | 84 | 145 | 0.0 | 0.0 | 0.00 | 0.00 | 0.00 | 68 | 1017.1 |
| 20260905194313 | 84 | 145 | 0.0 | 0.0 | 0.00 | 0.00 | 0.00 | 66 | 1017.1 |
| 20260905193830 | 85 | 145 | 0.0 | 0.0 | 0.00 | 0.00 | 0.00 | 67 | 1017.2 |
| 20260905193319 | 85 | 146 | 0.0 | 0.0 | 0.00 | 0.00 | 0.00 | 64 | 1017.2 |
| 20260905192330 | 85 | 145 | 0.0 | 0.0 | 0.00 | 0.00 | 0.00 | 65 | 1017.4 |
| 20260905191811 | 84 | 145 | 0.0 | 0.0 | 0.00 | 0.00 | 0.00 | 65 | 1017.6 |
| 20260905191315 | 84 | 145 | 0.0 | 0.0 | 0.00 | 0.00 | 0.00 | 66 | 1017.7 |
| 20260905190818 | 84 | 145 | 0.0 | 0.0 | 0.00 | 0.00 | 0.00 | 64 | 1017.7 |
| 20260905190311 | 84 | 145 | 0.0 | 0.0 | 0.00 | 0.00 | 0.00 | 65 | 1017.7 |
| 20260905185812 | 84 | 145 | 0.0 | 0.0 | 0.00 | 0.00 | 0.00 | 66 | 1017.7 |
| 20260905185315 | 84 | 145 | 0.0 | 0.0 | 0.00 | 0.00 | 0.00 | 65 | 1017.6 |
| 20260905184859 | 84 | 145 | 0.0 | 0.0 | 0.00 | 0.00 | 0.00 | 66 | 1017.6 |
| 20260905184326 | 84 | 145 | 0.0 | 0.0 | 0.00 | 0.00 | 0.00 | 66 | 1017.7 |
| 20260905183846 | 84 | 145 | 0.0 | 0.0 | 0.00 | 0.00 | 0.00 | 67 | 1017.7 |
| 20260905183333 | 84 | 145 | 0.0 | 0.0 | 0.00 | 0.00 | 0.00 | 67 | 1017.8 |
| 20260905182814 | 84 | 145 | 0.0 | 0.0 | 0.00 | 0.00 | 0.00 | 65 | 1017.8 |
| 20260905182323 | 83 | 145 | 0.0 | 0.0 | 0.00 | 0.00 | 0.00 | 65 | 1017.9 |
| 20260905181810 | 83 | 145 | 0.0 | 0.0 | 0.00 | 0.00 | 0.00 | 67 | 1018.0 |
| 20260905181311 | 83 | 145 | 0.0 | 0.0 | 0.00 | 0.00 | 0.00 | 67 | 1018.1 |
| 20260905180812 | 83 | 145 | 0.0 | 0.0 | 0.00 | 0.00 | 0.00 | 70 | 1018.2 |
| 20260905180322 | 83 | 145 | 0.0 | 0.0 | 0.00 | 0.00 | 0.00 | 71 | 1018.3 |
| 20260905175822 | 84 | 145 | 0.0 | 0.0 | 0.00 | 0.00 | 0.00 | 70 | 1018.3 |
| 20260905175323 | 83 | 145 | 0.0 | 0.0 | 0.00 | 0.00 | 0.00 | 69 | 1018.3 |
| 20260905174833 | 84 | 145 | 0.0 | 0.0 | 0.00 | 0.00 | 0.00 | 72 | 1018.3 |
| 20260905174332 | 83 | 145 | 0.0 | 0.0 | 0.00 | 0.00 | 0.00 | 70 | 1018.4 |
| 20260905173820 | 83 | 145 | 0.0 | 0.0 | 0.00 | 0.00 | 0.00 | 71 | 1018.5 |
| 20260905173324 | 83 | 145 | 0.0 | 0.0 | 0.00 | 0.00 | 0.00 | 69 | 1018.5 |
| 20260905172851 | 83 | 145 | 0.0 | 0.0 | 0.00 | 0.00 | 0.00 | 69 | 1018.6 |
| 20260905172309 | 83 | 145 | 0.0 | 0.0 | 0.00 | 0.00 | 0.00 | 71 | 1018.6 |
| 20260905171812 | 83 | 145 | 0.0 | 0.0 | 0.00 | 0.00 | 0.00 | 72 | 1018.7 |
| 20260905171323 | 83 | 145 | 0.0 | 0.0 | 0.00 | 0.00 | 0.00 | 72 | 1018.7 |
| 20260905170826 | 83 | 145 | 0.0 | 0.0 | 0.00 | 0.00 | 0.00 | 73 | 1018.7 |
| 20260905170356 | 83 | 145 | 0.0 | 0.0 | 0.00 | 0.00 | 0.00 | 72 | 1018.7 |
| 20260905165838 | 83 | 144 | 0.0 | 0.0 | 0.00 | 0.00 | 0.00 | 73 | 1018.8 |
| 20260905165346 | 84 | 146 | 0.0 | 0.0 | 0.00 | 0.00 | 0.00 | 74 | 1018.7 |
| 20260905164826 | 83 | 146 | 0.0 | 0.0 | 0.00 | 0.00 | 0.00 | 74 | 1018.8 |
| 20260905164335 | 83 | 145 | 0.0 | 0.0 | 0.00 | 0.00 | 0.00 | 73 | 1018.9 |
| 20260905163817 | 83 | 145 | 0.0 | 0.0 | 0.00 | 0.00 | 0.00 | 74 | 1018.9 |
| 20260905163321 | 83 | 145 | 0.0 | 0.0 | 0.00 | 0.00 | 0.00 | 75 | 1018.9 |
| 20260905162827 | 83 | 145 | 0.0 | 0.0 | 0.00 | 0.00 | 0.00 | 75 | 1019.0 |
| 20260905162309 | 83 | 146 | 0.0 | 0.0 | 0.00 | 0.00 | 0.00 | 75 | 1019.1 |
| 20260905161830 | 83 | 146 | 0.0 | 0.0 | 0.00 | 0.00 | 0.00 | 76 | 1019.1 |
| 20260905161317 | 82 | 146 | 0.0 | 0.0 | 0.00 | 0.00 | 0.00 | 75 | 1019.2 |
| 20260905160817 | 82 | 145 | 0.0 | 0.0 | 0.00 | 0.00 | 0.00 | 76 | 1019.2 |
| 20260905160318 | 82 | 145 | 0.0 | 0.0 | 0.00 | 0.00 | 0.00 | 75 | 1019.2 |
| 20260905155829 | 82 | 145 | 0.0 | 0.0 | 0.00 | 0.00 | 0.00 | 75 | 1019.2 |
| 20260905155309 | 82 | 145 | 0.0 | 0.0 | 0.00 | 0.00 | 0.00 | 75 | 1019.2 |
| 20260905154318 | 81 | 145 | 0.0 | 0.0 | 0.00 | 0.00 | 0.00 | 76 | 1019.4 |
| 20260905153820 | 81 | 146 | 0.0 | 0.0 | 0.00 | 0.00 | 0.00 | 76 | 1019.4 |
| 20260905153348 | 81 | 145 | 0.0 | 0.0 | 0.00 | 0.00 | 0.00 | 76 | 1019.3 |
| 20260905152810 | 81 | 145 | 0.0 | 0.0 | 0.00 | 0.00 | 0.00 | 78 | 1019.3 |
| 20260905152310 | 80 | 145 | 0.0 | 0.0 | 0.00 | 0.00 | 0.00 | 78 | 1019.3 |
| 20260905151811 | 80 | 145 | 0.0 | 0.0 | 0.00 | 0.00 | 0.00 | 77 | 1019.3 |
| 20260905151319 | 80 | 145 | 0.0 | 0.0 | 0.00 | 0.00 | 0.00 | 78 | 1019.3 |
| 20260905150820 | 79 | 145 | 0.0 | 0.0 | 0.00 | 0.00 | 0.00 | 78 | 1019.4 |
| 20260905150322 | 79 | 144 | 0.0 | 0.0 | 0.00 | 0.00 | 0.00 | 78 | 1019.4 |
| 20260905145831 | 79 | 145 | 0.0 | 0.0 | 0.00 | 0.00 | 0.00 | 78 | 1019.4 |
| 20260905145313 | 79 | 145 | 0.0 | 0.0 | 0.00 | 0.00 | 0.00 | 78 | 1019.4 |
| 20260905144821 | 79 | 145 | 0.0 | 0.0 | 0.00 | 0.00 | 0.00 | 77 | 1019.4 |
| 20260905144319 | 78 | 145 | 0.0 | 0.0 | 0.00 | 0.00 | 0.00 | 78 | 1019.4 |
| 20260905143820 | 78 | 145 | 0.0 | 0.0 | 0.00 | 0.00 | 0.00 | 78 | 1019.4 |
| 20260905143315 | 77 | 145 | 0.0 | 0.0 | 0.00 | 0.00 | 0.00 | 78 | 1019.5 |
| 20260905142815 | 77 | 146 | 0.0 | 0.0 | 0.00 | 0.00 | 0.00 | 78 | 1019.4 |
| 20260905142317 | 77 | 145 | 0.0 | 0.0 | 0.00 | 0.00 | 0.00 | 77 | 1019.5 |
| 20260905141846 | 76 | 146 | 0.0 | 0.0 | 0.00 | 0.00 | 0.00 | 76 | 1019.5 |
| 20260905141326 | 76 | 146 | 0.0 | 0.0 | 0.00 | 0.00 | 0.00 | 76 | 1019.5 |
| 20260905140811 | 76 | 147 | 0.0 | 0.0 | 0.00 | 0.00 | 0.00 | 76 | 1019.5 |
| 20260905140318 | 76 | 145 | 0.0 | 0.0 | 0.00 | 0.00 | 0.00 | 76 | 1019.6 |
| 20260905135827 | 76 | 145 | 0.0 | 0.0 | 0.00 | 0.00 | 0.00 | 76 | 1019.5 |
| 20260905135311 | 76 | 145 | 0.0 | 0.0 | 0.00 | 0.00 | 0.00 | 77 | 1019.5 |
| 20260905134814 | 76 | 145 | 0.0 | 0.0 | 0.00 | 0.00 | 0.00 | 77 | 1019.5 |
| 20260905134316 | 76 | 144 | 0.0 | 0.0 | 0.00 | 0.00 | 0.00 | 77 | 1019.6 |
| 20260905133825 | 75 | 145 | 0.0 | 0.0 | 0.00 | 0.00 | 0.00 | 77 | 1019.6 |
| 20260905133326 | 75 | 146 | 0.0 | 0.0 | 0.00 | 0.00 | 0.00 | 77 | 1019.6 |
| 20260905132809 | 75 | 148 | 0.0 | 0.0 | 0.00 | 0.00 | 0.00 | 77 | 1019.7 |
| 20260905132312 | 75 | 148 | 0.0 | 0.0 | 0.00 | 0.00 | 0.00 | 74 | 1019.7 |
| 20260905131841 | 75 | 149 | 0.0 | 0.0 | 0.00 | 0.00 | 0.00 | 76 | 1019.7 |
| 20260905131323 | 75 | 149 | 0.0 | 0.0 | 0.00 | 0.00 | 0.00 | 75 | 1019.7 |
| 20260905130833 | 75 | 149 | 0.0 | 0.0 | 0.00 | 0.00 | 0.00 | 74 | 1019.7 |
| 20260905130336 | 75 | 149 | 0.0 | 0.0 | 0.00 | 0.00 | 0.00 | 75 | 1019.8 |
| 20260905125825 | 74 | 149 | 0.0 | 0.0 | 0.00 | 0.00 | 0.00 | 77 | 1019.7 |
| 20260905125347 | 74 | 149 | 0.0 | 0.0 | 0.00 | 0.00 | 0.00 | 77 | 1019.6 |
| 20260905124916 | 74 | 149 | 0.0 | 0.0 | 0.00 | 0.00 | 0.00 | 76 | 1019.6 |
| 20260905124337 | 74 | 149 | 0.0 | 0.0 | 0.00 | 0.00 | 0.00 | 76 | 1019.6 |
| 20260905123844 | 74 | 149 | 0.0 | 0.0 | 0.00 | 0.00 | 0.00 | 77 | 1019.6 |
| 20260905123326 | 74 | 149 | 0.0 | 0.0 | 0.00 | 0.00 | 0.00 | 77 | 1019.6 |
| 20260905122836 | 74 | 149 | 0.0 | 0.0 | 0.00 | 0.00 | 0.00 | 78 | 1019.6 |
| 20260905122317 | 74 | 149 | 0.0 | 0.0 | 0.00 | 0.00 | 0.00 | 78 | 1019.6 |
| 20260905121820 | 74 | 149 | 0.0 | 0.0 | 0.00 | 0.00 | 0.00 | 79 | 1019.6 |
| 20260905121330 | 75 | 149 | 0.0 | 0.0 | 0.00 | 0.00 | 0.00 | 79 | 1019.6 |
| 20260905120813 | 75 | 149 | 0.0 | 0.0 | 0.00 | 0.00 | 0.00 | 79 | 1019.5 |
| 20260905120315 | 75 | 149 | 0.0 | 0.0 | 0.00 | 0.00 | 0.00 | 79 | 1019.4 |
| 20260905115818 | 75 | 149 | 0.0 | 0.0 | 0.00 | 0.00 | 0.00 | 79 | 1019.4 |
| 20260905115348 | 75 | 149 | 0.0 | 0.0 | 0.00 | 0.00 | 0.00 | 79 | 1019.3 |
| 20260905114810 | 75 | 149 | 0.0 | 0.0 | 0.00 | 0.00 | 0.00 | 79 | 1019.3 |
| 20260905114315 | 75 | 149 | 0.0 | 0.0 | 0.00 | 0.00 | 0.00 | 79 | 1019.3 |
| 20260905113844 | 75 | 149 | 0.0 | 0.0 | 0.00 | 0.00 | 0.00 | 79 | 1019.2 |
| 20260905113330 | 75 | 149 | 0.0 | 0.0 | 0.00 | 0.00 | 0.00 | 79 | 1019.2 |
| 20260905112809 | 75 | 149 | 0.0 | 0.0 | 0.00 | 0.00 | 0.00 | 79 | 1019.1 |
| 20260905112312 | 75 | 149 | 0.0 | 0.0 | 0.00 | 0.00 | 0.00 | 79 | 1019.1 |